www.pogodaiklimat.ru

Погода и климат >> Архив погоды >> Кука Острова >> Penrhyn


ПОГОДА в Penrhyn

  • Прогноз погоды в Penrhyn
  • Монитор погоды в Penrhyn
  • Климат города

АРХИВ ПОГОДЫ в Penrhyn

Время (UTC), дата Ветер
(напр.,м/с)
 
Видим.   Явления Облачность Т
(С)
Тd
(С)
f
(%)
Тe
(С)
Тes
(С)
Комфортность P
(гПа)
Po
(гПа)
Тmin
(С)
Tmax
(С)
R
(мм)
S
(см)
03 16.03 В 2 н/о н/о +32.1 +26.3 72 +49 +49 опасность
перегрева
1008.1 1008.0
12 16.03 В 2 н/о н/о +26.4 +24.9 91 +38 +38 очень
душно
1009.9 1010.0 +33.5 0.4
15 16.03 В 2 н/о н/о +26.6 +25.3 93 +39 +39 очень
душно
1010.1 1010.0
21 16.03 В 1 н/о н/о +28.2 +26.7 92 +44 +44 опасность
перегрева
1012.1 1012.0
00 17.03 В 1 н/о н/о +31.7 +27.2 77 +50 +50 опасность
перегрева
1010.2 1010.0 +25.8 2
06 17.03 В 1 н/о н/о +27.8 +25.2 86 +40 +40 очень
душно
1012.1 1012.0
09 17.03 В 2 н/о н/о +25.3 +25.3 100 +36 +36 очень
душно
1013.0 1013.0
12 17.03 В 2 н/о н/о +25.1 +25.1 100 +36 +36 очень
душно
1010.6 1011.0 +32.3 20
15 17.03 В 1 н/о н/о +25.2 +25.2 100 +36 +36 очень
душно
1009.8 1010.0
21 17.03 В 2 н/о н/о +30.5 +25.9 76 +45 +45 опасность
перегрева
1011.4 1011.0
00 18.03 В 2 н/о н/о +31.0 +27.0 79 +48 +48 опасность
перегрева
1009.2 1009.0 +23.5 0.2
03 18.03 В 2 н/о н/о +30.2 +26.3 80 +46 +46 опасность
перегрева
1008.1 1008.0
06 18.03 В 2 н/о н/о +28.2 +26.2 89 +43 +43 опасность
перегрева
1009.9 1010.0
09 18.03 В 2 н/о н/о +28.2 +25.8 87 +42 +42 опасность
перегрева
1011.8 1012.0
12 18.03 В 6 н/о н/о +27.2 +24.8 87 +39 +39 очень
душно
1010.1 1010.0 +32.1
15 18.03 В 2 н/о н/о +24.0 +24.0 100 +33 +33 очень
душно
1010.3 1010.0
21 18.03 В 4 н/о н/о +27.7 +26.1 91 +42 +42 опасность
перегрева
1011.2 1011.0
06 19.03 СВ 4 н/о н/о +28.0 +26.2 90 +42 +42 опасность
перегрева
1009.9 1010.0
09 19.03 СВ 3 н/о н/о +27.3 +25.4 89 +40 +40 очень
душно
1011.7 1012.0
21 19.03 З 2 н/о н/о +31.0 +27.2 80 +49 +49 опасность
перегрева
1012.3 1012.0
00 20.03 В 2 н/о н/о +27.0 +25.7 93 +40 +40 очень
душно
1010.7 1011.0 +25.9 4
03 20.03 В 1 н/о н/о +28.9 +26.3 86 +44 +44 опасность
перегрева
1009.7 1010.0
06 20.03 В 1 н/о н/о +27.0 +25.5 92 +40 +40 очень
душно
1011.2 1011.0
09 20.03 В 2 н/о н/о +27.0 +25.7 93 +40 +40 очень
душно
1012.1 1012.0
12 20.03 В 2 н/о н/о +27.0 +25.5 92 +40 +40 очень
душно
1010.4 1010.0 +32.7
15 20.03 В 2 н/о н/о +26.9 +25.7 93 +40 +40 очень
душно
1009.7 1010.0
18 20.03 ЮВ 3 н/о н/о +26.0 +26.0 100 +39 +39 очень
душно
1011.9 1012.0 2
21 20.03 В 2 н/о н/о +31.5 +27.7 80 +51 +51 опасность
перегрева
1012.0 1012.0
00 21.03 В 2 н/о н/о +33.3 +27.6 72 +53 +53 опасность
перегрева
1009.5 1010.0 +25.7 3
03 21.03 В 2 н/о н/о +30.4 +26.2 78 +46 +46 опасность
перегрева
1009.5 1010.0
12 21.03 В 1 н/о н/о +27.8 +25.4 87 +41 +41 опасность
перегрева
1011.2 1011.0 +33.5
15 21.03 0 н/о
18 21.03 В 2 н/о н/о +32.1 +26.2 71 +48 +48 опасность
перегрева
1012.1 1012.0
21 21.03 Ю 2 н/о н/о +27.5 +26.0 92 +41 +41 опасность
перегрева
1012.7 1013.0
00 22.03 В 2 н/о н/о +33.1 +26.8 70 +51 +51 опасность
перегрева
1010.5 1011.0 +25.9 0.4
03 22.03 С 3 н/о н/о +25.5 +25.0 97 +36 +36 очень
душно
1010.5 1011.0
06 22.03 СВ 1 н/о н/о +26.0 +25.0 94 +37 +37 очень
душно
1012.1 1012.0 7
09 22.03 СВ 1 н/о н/о +25.7 +24.8 95 +36 +36 очень
душно
1013.5 1014.0
12 22.03 В 1 н/о н/о +25.0 +24.2 95 +34 +34 очень
душно
1011.8 1012.0 +34.4
15 22.03 В 1 н/о н/о +25.4 +24.3 94 +35 +35 очень
душно
1011.6 1012.0
18 22.03 В 1 н/о н/о +29.0 +26.1 84 +44 +44 опасность
перегрева
1013.7 1014.0
21 22.03 В 2 н/о н/о +31.7 +26.3 73 +48 +48 опасность
перегрева
1012.9 1013.0

 

Местоположение метеостанции Penrhyn (Кука Острова): широта -9.03 долгота -158.00 высота над уровнем моря 1 м.

В архиве по умолчанию представлена погода в Penrhyn за последнюю неделю. Архивные данные за месяц целиком и за предыдущие месяцы, начиная с января 2011 года, Вы можете получить, выбрав интересующий диапазон дат из раскрывающегося списка и нажав кнопку "Ввод!".

Внимание! Время в таблицах - всемирное. Для получения местного времени необходимо прибавить поправку, которая в Penrhyn равна -10 ч.

Смотрите также архив погоды в соседних городах и на ближайших метеорологических станциях:

Погода в Manihiki (Кука Острова) (366 км)
Погода в Bora-Bora Airport (Французская Полинезия) (1070 км)
Погода в Aitutaki (Кука Острова) (1105 км)
Погода в Christmas (Кирибати) (1226 км)
Погода в Tahiti-Faaa (Французская Полинезия) (1313 км)
Погода в Rarotonga (Кука Острова) (1367 км)
Погода в Takaroa (Французская Полинезия) (1539 км)
Погода в Lufi-Lufi (Самоа) (1573 км)
Погода в Le Mafa (Самоа) (1580 км)
Погода в Apia (Американское Самоа) (1584 км)

Пояснения к столбцам:

Ветер - указаны скорость ветра в м/с - средняя за 10 мин, порывы в срок и между сроками (в фигурных скобках) и направление, откуда дует ветер: С - северный, СВ - северо-восточный, В - восточный, ЮВ - юго-восточный, Ю - южный, ЮЗ - юго-западный, З - западный, СЗ - северо-западный.
Видимость - горизонтальная дальность видимости в метрах или километрах. При видимости от 1 до 10 км при отсутствии осадков обычно наблюдается дымка, при ухудшении видимости до 1 км и менее - туман. В сухую погоду видимость может ухудшаться дымом, пылью или мглою.
Явления - указаны атмосферные явления, наблюдавшиеся в срок или в последний час перед сроком; фигурными скобками обозначены явления, наблюдавшиеся между сроками (за 1-3 часа до срока); квадратными скобками обозначены град или гололедные отложения с указанием их диаметра в мм.
Облачность - указаны через наклонную черту общая и нижняя облачность в баллах и высота нижней границы облаков в метрах; квадратными скобками обозначены формы облаков: Ci - перистые, Cs - перисто-слоистые, Cc - перисто-кучевые, Ac - высококучевые, As - высокослоистые, Sc - слоисто-кучевые, Ns - слоисто-дождевые, Cu - кучевые, Cb - кучево-дождевые. Подробнее классификацию облаков см. в Атласе облаков (PDF).
T - Температура воздуха - температура, измеренная на высоте 2 м над землей.
Td - Температура точки росы - температура, при понижении до которой содержащийся в воздухе водяной пар достигнет насыщения.
f - Относительная влажность воздуха - влажноcть воздуха, измеренная на высоте 2 м над землей.
Te - Эффективная температура - температура, которую ощущает одетый по сезону человек в тени. Характеристика душности погоды. При расчете учитывается влияние влажности воздуха и скорости ветра на теплоощущения человека.
Tes - Эффективная температура на солнце - температура, которую ощущает человек, с поправкой на солнечный нагрев. Характеристика знойности погоды. Зависит от высоты солнца над горизонтом, облачности и скорости ветра. Ночью, в пасмурную погоду, а также при ветре 12 м/с и более поправка равна нулю.
P - Атмосферное давление - приведенное к уровню моря атмосферное давление.
Po - Атмосферное давление - измеренное на уровне метеостанции атмосферное давление.
Tmin - Минимальная температура - минимум температуры воздуха на высоте 2 м над землей.
Tmax - Максимальная температура - максимум температуры воздуха на высоте 2 м над землей.
R - Количество осадков - Количество выпавших осадков, мм. При наведении курсора мыши на число - период времени, за который выпало указанное количество осадков.
S - Снежный покров - Высота снежного покрова, см. При наведении курсора мыши на число - состояние снежного покрова и степень покрытия местности в баллах.